FW4805 Weather Reports


time (UTC)temp
C
wind
direction
speed
KPH
gust
KPH
rain 1hr
cm
rain 24hr
cm
rain mn
cm
humidity
%
barometer
mb
20260508003000 20 262 12.9 22.5 0.00 0.00 0.00 38 1016.0
20260508002000 20 256 14.5 25.7 0.00 0.00 0.00 37 1016.0
20260508001000 20 257 14.5 20.9 0.00 0.00 0.00 37 1016.0
20260508000000 20 251 14.5 27.4 0.00 0.00 0.00 37 1016.0
20260507235000 20 247 16.1 25.7 0.00 0.00 0.00 36 1015.9
20260507234000 20 248 14.5 29.0 0.00 0.00 0.00 35 1016.1
20260507232959 20 250 14.5 29.0 0.00 0.00 0.00 35 1016.2
20260507231959 20 249 12.9 25.7 0.00 0.00 0.00 35 1016.4
20260507225959 20 247 11.3 22.5 0.00 0.00 0.00 37 1016.6
20260507224959 20 244 14.5 25.7 0.00 0.00 0.00 37 1016.5
20260507223959 20 246 17.7 25.7 0.00 0.00 0.00 38 1016.5
20260507222959 20 243 16.1 27.4 0.00 0.00 0.00 39 1016.9
20260507221959 20 240 14.5 29.0 0.00 0.00 0.00 39 1017.0
20260507220959 20 244 17.7 27.4 0.00 0.00 0.00 39 1016.9
20260507215959 20 244 20.9 32.2 0.00 0.00 0.00 38 1016.9
20260507214959 20 245 16.1 27.4 0.00 0.00 0.00 38 1016.9
20260507214000 20 246 17.7 29.0 0.00 0.00 0.00 39 1016.9
20260507213000 20 245 14.5 29.0 0.00 0.00 0.00 39 1016.9
20260507212000 20 242 14.5 25.7 0.00 0.00 0.00 39 1017.0
20260507211000 20 241 14.5 25.7 0.00 0.00 0.00 39 1016.9
20260507205000 20 241 16.1 25.7 0.00 0.00 0.00 39 1016.8
20260507203959 20 240 19.3 37.0 0.00 0.00 0.00 39 1016.8
20260507202959 20 240 16.1 32.2 0.00 0.00 0.00 38 1016.8
20260507201959 20 237 16.1 27.4 0.00 0.00 0.00 39 1016.7
20260507200959 20 242 19.3 35.4 0.00 0.00 0.00 40 1016.8
20260507195959 19 244 19.3 30.6 0.00 0.00 0.00 43 1016.9
20260507194959 19 251 20.9 32.2 0.00 0.00 0.00 44 1016.8
20260507193959 20 255 19.3 29.0 0.00 0.00 0.00 43 1016.9
20260507192000 20 261 19.3 25.7 0.00 0.00 0.00 42 1017.1
20260507191000 20 261 17.7 25.7 0.00 0.00 0.00 38 1016.9
20260507190000 20 258 14.5 20.9 0.00 0.00 0.00 37 1016.9
20260507185000 20 249 14.5 25.7 0.00 0.00 0.00 36 1016.9
20260507184000 20 243 14.5 25.7 0.00 0.00 0.00 35 1016.8
20260507183000 20 243 11.3 19.3 0.00 0.00 0.00 35 1016.8
20260507182000 20 240 9.7 19.3 0.00 0.00 0.00 34 1016.9
20260507181000 20 250 4.8 17.7 0.00 0.00 0.00 35 1016.8
20260507180000 20 249 6.4 20.9 0.00 0.00 0.00 34 1016.8
20260507175000 20 249 4.8 19.3 0.00 0.00 0.00 34 1016.8
20260507174000 20 248 8.0 17.7 0.00 0.00 0.00 34 1016.7
20260507172959 20 246 8.0 25.7 0.00 0.00 0.00 35 1016.8
20260507171959 20 253 9.7 22.5 0.00 0.00 0.00 34 1016.8
20260507171000 20 249 11.3 17.7 0.00 0.00 0.00 35 1016.6
20260507165959 21 249 11.3 20.9 0.00 0.00 0.00 36 1016.7
20260507164959 21 247 9.7 19.3 0.00 0.00 0.00 37 1016.7
20260507162000 21 248 6.4 22.5 0.00 0.00 0.00 37 1016.8
20260507161000 21 242 8.0 19.3 0.00 0.00 0.00 38 1016.8
20260507160000 22 231 8.0 19.3 0.00 0.00 0.00 38 1017.0
20260507155000 22 240 6.4 25.7 0.00 0.00 0.00 38 1016.8
20260507152959 21 242 11.3 27.4 0.00 0.00 0.00 39 1016.7
20260507152000 21 248 11.3 25.7 0.00 0.00 0.00 39 1016.7
20260507151000 21 248 16.1 29.0 0.00 0.00 0.00 39 1016.9
20260507145000 22 252 20.9 29.0 0.00 0.00 0.00 41 1016.6
20260507144000 22 247 20.9 27.4 0.00 0.00 0.00 40 1016.4
20260507143000 22 246 20.9 30.6 0.00 0.00 0.00 40 1016.4
20260507142000 22 249 20.9 27.4 0.00 0.00 0.00 41 1016.3
20260507141000 22 251 25.7 35.4 0.00 0.00 0.00 41 1016.4
20260507140000 22 252 24.1 29.0 0.00 0.00 0.00 41 1016.3
20260507135000 22 251 24.1 29.0 0.00 0.00 0.00 42 1016.6
20260507134000 22 248 25.7 30.6 0.00 0.00 0.00 39 1016.6
20260507133000 23 250 22.5 35.4 0.00 0.00 0.00 37 1016.6
20260507130000 23 254 20.9 32.2 0.00 0.00 0.00 37 1016.6
20260507125000 24 261 22.5 37.0 0.00 0.00 0.00 37 1016.6
20260507122959 23 263 24.1 37.0 0.00 0.00 0.00 32 1016.7
20260507122000 24 260 22.5 29.0 0.00 0.00 0.00 32 1016.9
20260507121000 23 264 25.7 38.6 0.00 0.00 0.00 34 1016.9
20260507120000 23 265 30.6 37.0 0.00 0.00 0.00 37 1017.1
20260507114000 23 270 27.4 40.2 0.00 0.00 0.00 34 1017.1
20260507113000 23 272 27.4 35.4 0.00 0.00 0.00 37 1017.0
20260507112000 23 270 27.4 40.2 0.00 0.00 0.00 38 1016.9
20260507111000 23 270 25.7 35.4 0.00 0.00 0.00 41 1016.9
20260507110000 23 268 25.7 29.0 0.00 0.00 0.00 39 1016.8
20260507104000 23 273 25.7 30.6 0.00 0.00 0.00 39 1016.8
20260507103000 23 268 27.4 29.0 0.00 0.00 0.00 35 1016.7
20260507102000 23 270 24.1 35.4 0.00 0.00 0.00 38 1016.7
20260507101000 23 278 24.1 32.2 0.00 0.00 0.00 39 1016.5
20260507095000 23 270 24.1 35.4 0.00 0.00 0.00 33 1016.4
20260507094000 23 270 25.7 30.6 0.00 0.00 0.00 34 1016.7
20260507093000 23 270 27.4 40.2 0.00 0.00 0.00 40 1016.8
20260507092001 23 265 24.1 38.6 0.00 0.00 0.00 43 1016.9
20260507091000 23 269 24.1 32.2 0.00 0.00 0.00 41 1017.0
20260507090000 23 264 24.1 35.4 0.00 0.00 0.00 41 1017.0
20260507085000 22 261 22.5 27.4 0.00 0.00 0.00 46 1016.9
20260507084000 22 265 24.1 30.6 0.00 0.00 0.00 45 1016.9
20260507083000 22 267 25.7 37.0 0.00 0.00 0.00 46 1017.0
20260507082000 22 270 25.7 32.2 0.00 0.00 0.00 41 1016.8
20260507081000 23 270 25.7 37.0 0.00 0.00 0.00 40 1016.6
20260507080000 23 263 20.9 27.4 0.00 0.00 0.00 37 1016.6
20260507075000 23 262 19.3 27.4 0.00 0.00 0.00 35 1016.5
20260507074000 23 260 16.1 29.0 0.00 0.00 0.00 35 1016.5
20260507073000 23 248 12.9 20.9 0.00 0.00 0.00 34 1016.5
20260507072000 23 265 11.3 20.9 0.00 0.00 0.00 33 1016.3
20260507071000 23 251 9.7 17.7 0.00 0.00 0.00 33 1016.3
20260507070000 23 224 6.4 17.7 0.00 0.00 0.00 34 1016.4
20260507064000 22 90 4.8 8.0 0.00 0.00 0.00 46 1016.3
20260507061000 21 88 8.0 12.9 0.00 0.00 0.00 53 1016.2
20260507060000 20 88 8.0 17.7 0.00 0.00 0.00 54 1016.2
20260507055000 22 148 1.6 6.4 0.00 0.00 0.00 44 1016.2
20260507054000 21 203 1.6 9.7 0.00 0.00 0.00 47 1016.2
20260507053000 21 215 3.2 9.7 0.00 0.00 0.00 51 1016.2
20260507052000 20 233 4.8 12.9 0.00 0.00 0.00 52 1016.2
20260507051000 20 243 8.0 19.3 0.00 0.00 0.00 56 1016.2
20260507045000 19 250 9.7 19.3 0.00 0.00 0.00 60 1016.0
20260507044000 18 255 12.9 20.9 0.00 0.00 0.00 62 1015.8
20260507042000 18 261 4.8 19.3 0.00 0.00 0.00 63 1015.8
20260507041000 17 253 3.2 16.1 0.00 0.00 0.00 63 1015.6
20260507040001 17 268 8.0 20.9 0.00 0.00 0.00 62 1015.5
20260507035000 17 270 9.7 19.3 0.00 0.00 0.00 63 1015.5
20260507034000 17 268 6.4 17.7 0.00 0.00 0.00 64 1015.5
20260507032000 17 265 8.0 20.9 0.00 0.00 0.00 63 1015.3
20260507031000 17 269 8.0 17.7 0.00 0.00 0.00 62 1015.3
20260507030000 17 265 8.0 16.1 0.00 0.00 0.00 60 1015.1
20260507024001 16 317 0.0 6.4 0.00 0.00 0.00 42 1014.8
20260507021000 16 292 1.6 8.0 0.00 0.00 0.00 44 1014.6
20260507020000 16 298 0.0 1.6 0.00 0.00 0.00 42 1014.5
20260507015000 16 301 0.0 1.6 0.00 0.00 0.00 44 1014.2
20260507012001 17 280 1.6 11.3 0.00 0.00 0.00 39 1014.4
20260507011001 17 270 4.8 11.3 0.00 0.00 0.00 39 1014.4
20260507010001 17 270 6.4 9.7 0.00 0.00 0.00 41 1014.4
20260507005001 17 267 8.0 16.1 0.00 0.00 0.00 40 1014.7